This is the latest recevied weather packets stored in our database for station/object XE2RCS-1. If no packets are shown the sender has not sent any weather packets the latest 10 day(s).
| Time | Temp. | Humidity | Pressure | Rain* | Wind** | Luminosity | Snow |
|---|---|---|---|---|---|---|---|
| 1777896948 | 16.67° C | 63% | 1014 hPa | 0 mm | - | - | - |
| 1777896347 | 16.67° C | 63% | 1014 hPa | 0 mm | - | - | - |
| 1777895747 | 16.67° C | 63% | 1014 hPa | 0 mm | - | - | - |
| 1777895146 | 16.67° C | 64% | 1014 hPa | 0 mm | - | - | - |
| 1777894546 | 16.67° C | 64% | 1014 hPa | 0 mm | - | - | - |
| 1777893946 | 16.67° C | 65% | 1012 hPa | 0 mm | - | - | - |
| 1777893344 | 16.67° C | 65% | 1012 hPa | 0 mm | - | - | - |
| 1777892744 | 16.67° C | 65% | 1012 hPa | 0 mm | - | - | - |
| 1777892143 | 16.11° C | 67% | 1013 hPa | 0 mm | - | - | - |
| 1777891542 | 16.11° C | 67% | 1013 hPa | 0 mm | - | - | - |
| 1777890942 | 15.56° C | 69% | 1013 hPa | 0 mm | - | - | - |
| 1777890341 | 15° C | 67% | 1011 hPa | 0 mm | - | - | - |
| 1777889741 | 15° C | 69% | 1012 hPa | 0 mm | - | - | - |
| 1777889140 | 14.44° C | 71% | 1012 hPa | 0 mm | - | - | - |
| 1777888539 | 13.89° C | 71% | 1013 hPa | 0 mm | - | - | - |
| 1777887939 | 15° C | 77% | 1013 hPa | 0 mm | - | - | - |
| 1777887338 | 13.89° C | 85% | 1013 hPa | 0 mm | - | - | - |
| 1777886737 | 15° C | 85% | 1011 hPa | 0 mm | - | - | - |
| 1777886137 | 14.44° C | 82% | 1011 hPa | 0 mm | - | - | - |
| 1777885536 | 15.56° C | 82% | 1011 hPa | 0 mm | - | - | - |
| 1777884935 | 14.44° C | 76% | 1013 hPa | 0 mm | - | - | - |
| 1777884335 | 15.56° C | 76% | 1013 hPa | 0 mm | - | - | - |
| 1777883734 | 13.89° C | 83% | 1013 hPa | 0 mm | - | - | - |
| 1777883134 | 15° C | 83% | 1011 hPa | 0 mm | - | - | - |
| 1777882533 | 13.33° C | 74% | 1012 hPa | 0 mm | - | - | - |
* Rain latest hour (hover to see other rain measurements)
** Current wind speed in m/s (hover to see current wind gust speed)